Temp
42 40 39 39 38 39 39 39 39 38 37 37 36 36 36 35 35 33 32 31 31 31
39 39 37 38 40 39 38 39 36 36 36 36 36 35 35 33 32 32 31 30 30 30
38 39 39 38 36 36 36 36 36 34 33 33 32 32 32 31 31 30 30 29 28 28
37 37 37 35 35 34 34 34 33 32 31 31 30 30 29 29 29 29 29 29 28 27
35 34 33 32 32 33 32 32 32 31 30 29 28 28 28 27 27 27 27 28 27 26
33 32 31 31 31 31 30 30 30 29 28 28 28 27 28 27 27 27 26 27 26 25
30 29 29 29 29 29 29 28 28 28 28 29 28 29 29 29 27 26 26 28 27 25
29 29 29 29 29 28 28 28 28 28 28 28 29 30 27 28 27 26 26 27 27 27
29 29 28 28 28 28 28 27 28 27 27 27 31 33 32 29 27 27 27 25 25 26
28 28 27 28 28 27 26 26 26 26 26 26 27 33 32 30 27 27 25 25 25 26
27 27 27 26 25 25 25 24 24 25 26 26 28 32 31 31 26 25 25 25 25 24
27 26 25 25 24 24 23 23 24 26 24 24 25 30 31 30 27 26 25 26 25 24
27 27 26 25 24 24 23 25 25 27 24 23 24 29 30 30 28 23 23 23 24 25
26 26 25 23 22 22 22 23 21 23 23 23 23 23 28 29 27 23 22 21 21 22
MSLP
1026.82 1027.71 1028.19 1029.23 1029.11 1029.70 1029.93 1029.76 1029.78 1030.22 1030.30 1030.39 1030.22 1030.32 1030.43 1030.63 1030.83 1030.93 1030.96 1031.28 1031.45 1031.58
1027.73 1028.08 1028.97 1028.98 1029.48 1030.37 1030.30 1030.08 1030.52 1030.73 1030.87 1030.84 1030.96 1031.07 1031.10 1031.22 1031.54 1031.55 1031.55 1031.71 1031.93 1031.97
1028.38 1028.59 1029.07 1029.56 1030.22 1030.37 1030.32 1030.52 1030.79 1031.24 1031.48 1031.45 1031.68 1031.66 1031.66 1031.76 1032.05 1032.05 1032.15 1032.23 1032.35 1032.54
1028.74 1029.13 1029.52 1029.86 1030.32 1030.63 1030.88 1031.09 1031.45 1031.86 1031.97 1032.13 1032.10 1032.00 1032.10 1032.20 1032.50 1032.44 1032.51 1032.54 1032.55 1032.71
1029.50 1029.67 1029.77 1030.19 1030.80 1030.94 1031.35 1031.62 1031.84 1032.20 1032.45 1032.58 1032.78 1032.70 1032.74 1032.60 1032.85 1032.83 1032.85 1032.86 1033.01 1033.02
1030.02 1030.07 1030.47 1030.74 1031.14 1031.47 1031.75 1032.01 1032.06 1032.38 1032.65 1032.86 1033.06 1033.03 1033.05 1033.12 1033.10 1033.12 1033.24 1033.01 1033.22 1032.99
1030.27 1030.59 1030.99 1031.33 1031.66 1031.90 1032.07 1032.23 1032.45 1032.79 1032.94 1033.07 1033.28 1033.29 1033.23 1033.18 1033.33 1033.19 1033.15 1033.06 1033.14 1032.89
1030.48 1031.11 1031.22 1031.72 1032.00 1032.10 1032.38 1032.63 1032.59 1032.80 1033.02 1033.12 1033.27 1033.35 1033.56 1033.36 1033.31 1033.32 1033.31 1033.18 1032.91 1032.95
1030.88 1031.30 1031.50 1032.16 1032.27 1032.33 1032.57 1032.70 1032.97 1033.04 1033.20 1033.21 1033.21 1033.06 1033.22 1033.41 1033.35 1033.22 1033.20 1033.33 1033.36 1033.21
1031.22 1031.64 1031.80 1032.07 1032.28 1032.37 1032.75 1033.13 1033.18 1033.25 1033.33 1033.68 1033.51 1032.89 1033.02 1033.24 1033.42 1033.54 1033.25 1033.60 1033.19 1032.89
1031.71 1031.81 1032.00 1032.25 1032.47 1032.93 1033.05 1033.13 1033.23 1033.52 1033.71 1033.55 1033.24 1032.92 1033.01 1033.19 1033.46 1033.55 1033.27 1033.32 1033.15 1032.83
1031.39 1031.87 1032.43 1032.75 1032.81 1032.90 1033.06 1033.41 1033.52 1033.46 1033.61 1033.43 1033.47 1033.34 1033.29 1033.30 1033.25 1033.31 1033.11 1033.03 1032.94 1032.85
1031.26 1032.02 1032.31 1032.59 1032.78 1033.08 1033.28 1033.45 1033.39 1033.40 1033.56 1033.59 1033.70 1033.39 1033.40 1033.06 1033.09 1033.05 1032.92 1032.83 1032.83 1032.61
1031.34 1031.67 1032.28 1032.59 1032.96 1033.29 1033.50 1033.59 1033.70 1033.55 1033.70 1033.59 1033.58 1033.75 1033.24 1033.08 1032.86 1032.87 1032.85 1032.80 1032.58 1032.37
Wind_Speed
10 6 7 5 6 3 3 4 6 6 5 6 6 6 6 5 5 6 6 7 5 4
8 9 7 7 6 3 4 6 6 6 6 6 7 6 6 5 5 5 5 5 5 4
8 7 7 7 6 5 6 6 6 6 5 6 6 5 5 5 5 6 4 4 5 4
7 7 7 7 6 5 6 6 6 5 6 5 6 5 5 6 5 6 5 4 4 4
7 7 7 7 6 5 6 5 6 5 6 6 5 5 5 5 4 5 4 4 4 4
6 7 6 6 5 5 6 5 6 6 6 5 5 5 4 4 4 4 4 4 3 3
6 6 5 5 5 5 5 6 5 5 5 4 4 3 3 3 3 4 3 3 3 4
6 5 6 5 5 5 5 4 5 5 5 4 3 2 3 2 3 3 3 3 5 4
6 5 5 5 4 5 4 4 4 4 4 3 1 3 3 3 3 4 4 3 3 4
5 5 5 5 5 4 5 4 3 3 3 3 2 1 3 3 3 3 3 3 5 6
5 5 4 4 4 4 3 3 3 3 3 3 2 2 3 4 2 3 3 3 4 5
6 5 5 5 5 3 3 2 3 3 3 2 3 5 5 5 3 5 3 5 3 5
6 6 5 5 4 2 2 3 2 2 3 4 4 5 6 6 4 3 4 4 5 10
5 5 4 4 3 3 2 2 2 2 2 3 2 3 7 8 5 3 4 3 5 5
Wind_Direction
93 100 96 109 96 82 109 84 71 67 68 56 59 62 58 57 68 61 63 58 54 62
98 102 110 97 92 113 104 94 74 67 67 59 56 58 62 67 61 64 61 57 54 59
111 107 103 100 113 100 85 87 83 72 70 64 57 60 65 63 52 63 51 57 52 40
99 101 106 104 93 91 92 91 94 91 78 69 63 56 71 74 60 65 58 53 54 30
110 111 101 99 104 106 107 99 100 88 80 70 61 56 63 67 67 70 71 59 44 17
118 106 108 111 112 110 112 109 101 98 94 85 72 73 71 72 71 70 72 61 38 9
120 120 121 118 115 114 116 114 110 108 103 93 85 74 70 73 64 59 56 55 16 11
121 122 121 116 116 114 113 119 123 127 122 123 120 115 78 52 50 40 30 19 10 358
128 132 120 123 127 123 121 122 136 139 157 151 159 102 62 48 18 15 7 341 334 321
138 140 140 142 134 132 150 154 147 140 148 193 242 147 15 44 2 334 317 307 324 335
154 141 135 139 151 159 151 157 150 182 202 212 269 301 310 311 279 289 277 304 305 328
154 145 160 176 169 153 146 171 186 194 209 229 265 273 283 301 303 300 317 312 338 327
151 167 176 171 162 148 167 192 182 196 207 231 253 266 288 305 294 299 315 313 314 320
155 151 166 147 142 161 171 146 208 245 243 260 247 266 293 301 305 309 293 298 316 316